Weather History for CYXU - August, 2013

Change the Weather History Date:

Friday, August 30, 2013

  Actual Average Record
Temperature  
Mean Temperature 73 °F -  
Max Temperature 84 °F 74 °F 87 °F (2010)
Min Temperature 62 °F 55 °F 46 °F (1999)
Cooling Degree Days 8    
Growing Degree Days 23 (Base 50)    
Moisture  
Dew Point 67 °F    
Average Humidity 84    
Maximum Humidity 100    
Minimum Humidity 58    
Precipitation  
Precipitation 0.00 in - - ()
Sea Level Pressure  
Sea Level Pressure 29.90 in    
Wind  
Wind Speed 5 mph ()    
Max Wind Speed 20 mph    
Max Gust Speed 26 mph    
Visibility 8.3 miles    
Events Fog , Rain , Thunderstorm    
Averages and records for this station are not official NWS values.
T = Trace of Precipitation, MM = Missing Value Source: Averaged Metar Reports

Daily Weather History Graph

Daily Weather History Graph

Search for Another Location

Airport or City:

Trip Planner

Search our weather history database for the weather conditions in past years. The results will help you decide how hot, cold, wet, or windy it might be!

Date:

Astronomy

Aug. 30, 2013 Rise Set
Actual Time 6:47 AM EDT 8:02 PM EDT
Civil Twilight 6:17 AM EDT 8:31 PM EDT
Nautical Twilight 5:42 AM EDT 9:06 PM EDT
Astronomical Twilight 5:05 AM EDT 9:43 PM EDT
Moon 1:19 AM EDT (8/30) 4:21 PM EDT (8/30)
Length of Visible Light 14h 13m
Length of Day
13h 15m
Waning Crescent, 29% of the Moon is Illuminated
Aug 30
Waning Crescent
Sep 5
New
Sep 12
First Quarter
Sep 19
Full
Sep 26
Last Quarter

Hourly Weather History & Observations

Time (EDT) Temp. Heat Index Dew Point Humidity Pressure Visibility Wind Dir Wind Speed Gust Speed Precip Events Conditions
12:00 AM 68.0 °F - 64.4 °F 88% 30.02 in 8.0 mi ENE 2.3 mph - N/A   Scattered Clouds
1:00 AM 66.2 °F - 64.4 °F 94% 30.02 in 8.0 mi ENE 3.5 mph - N/A   Scattered Clouds
2:00 AM 64.4 °F - 62.6 °F 94% 30.02 in 8.0 mi Calm Calm - N/A   Scattered Clouds
3:00 AM 64.4 °F - 64.4 °F 100% 30.01 in 8.0 mi ENE 2.3 mph - N/A   Scattered Clouds
4:00 AM 64.4 °F - 62.6 °F 94% 30.00 in 6.0 mi ESE 2.3 mph - N/A   Scattered Clouds
5:00 AM 62.6 °F - 62.6 °F 100% 29.99 in 4.0 mi Calm Calm - N/A   Scattered Clouds
5:04 AM 62.6 °F - 62.6 °F 100% 29.99 in 2.0 mi Calm Calm - N/A   Scattered Clouds
5:12 AM 62.6 °F - 62.6 °F 100% 29.99 in 5.0 mi Calm Calm - N/A   Scattered Clouds
5:36 AM 62.6 °F - 62.6 °F 100% 29.99 in 5.0 mi Calm Calm - N/A Fog Shallow Fog
6:00 AM 62.6 °F - 62.6 °F 100% 29.99 in 5.0 mi Calm Calm - N/A Fog Shallow Fog
6:07 AM 62.6 °F - 62.6 °F 100% 29.99 in 1.0 mi Variable 2.3 mph - N/A   Mostly Cloudy
7:00 AM 62.6 °F - 60.8 °F 94% 29.98 in 1.0 mi ESE 3.5 mph - N/A   Mostly Cloudy
7:22 AM 62.6 °F - 60.8 °F 94% 29.98 in 2.5 mi East 2.3 mph - N/A   Mostly Cloudy
7:41 AM 62.6 °F - 62.6 °F 100% 29.98 in 3.0 mi East 2.3 mph - N/A   Scattered Clouds
8:00 AM 65 °F - 64 °F 96% 29.99 in 3 mi East 1.2 mph - -  
8:00 AM 64.4 °F - 64.4 °F 100% 29.98 in 3.0 mi Calm Calm - N/A   Mostly Cloudy
8:27 AM 68.0 °F - 66.2 °F 94% 29.99 in 6.0 mi Variable 2.3 mph - N/A   Scattered Clouds
9:00 AM 73.4 °F - 68.0 °F 83% 29.99 in 6.0 mi West 2.3 mph - N/A   Mostly Cloudy
9:51 AM 75.2 °F - 66.2 °F 73% 29.96 in 10.0 mi SW 6.9 mph - N/A   Mostly Cloudy
10:00 AM 75.2 °F - 66.2 °F 73% 29.95 in 12.0 mi SW 11.5 mph - N/A   Mostly Cloudy
11:00 AM 75.2 °F - 66.2 °F 73% 29.94 in 15.0 mi SW 9.2 mph - N/A   Mostly Cloudy
12:00 PM 77.0 °F - 68.0 °F 74% 29.92 in 15.0 mi SSW 10.4 mph - N/A   Mostly Cloudy
1:00 PM 78.8 °F - 69.8 °F 74% 29.91 in 15.0 mi SW 10.4 mph - N/A   Mostly Cloudy
2:00 PM 81 °F - 69 °F 60% 29.89 in 15 mi SW 11.5 mph - -  
2:00 PM 80.6 °F 83.9 °F 69.8 °F 70% 29.89 in 15.0 mi SW 12.7 mph 18.4 mph N/A   Mostly Cloudy
3:00 PM 84.2 °F 87.3 °F 68.0 °F 58% 29.86 in 12.0 mi SW 16.1 mph - N/A   Mostly Cloudy
4:00 PM 82.4 °F 87.2 °F 71.6 °F 70% 29.82 in 10.0 mi SSW 12.7 mph 19.6 mph N/A   Overcast
5:00 PM 80.6 °F 83.9 °F 69.8 °F 70% 29.80 in 15.0 mi South 19.6 mph - N/A   Mostly Cloudy
6:00 PM 80.6 °F 83.9 °F 69.8 °F 70% 29.78 in 15.0 mi SSW 17.3 mph 26.5 mph N/A   Mostly Cloudy
7:00 PM 78.8 °F - 69.8 °F 74% 29.78 in 10.0 mi SSW 13.8 mph 23.0 mph N/A   Mostly Cloudy
7:48 PM 77.0 °F - 69.8 °F 78% 29.78 in 15.0 mi South 15.0 mph - N/A Thunderstorm Thunderstorm
8:00 PM 77 °F - 71 °F 75% 29.78 in 10 mi South 15.0 mph - -   Overcast
8:00 PM 77.0 °F - 69.8 °F 78% 29.77 in 10.0 mi South 15.0 mph - N/A Thunderstorm Thunderstorm
8:12 PM 77.0 °F - 69.8 °F 78% 29.77 in 12.0 mi SSW 11.5 mph - N/A Rain , Thunderstorm Light Thunderstorms and Rain
9:00 PM 77.0 °F - 69.8 °F 78% 29.76 in 10.0 mi SSW 8.1 mph - N/A Rain , Thunderstorm Light Thunderstorms and Rain
9:21 PM 77.0 °F - 69.8 °F 78% 29.79 in 10.0 mi SSW 9.2 mph - N/A   Overcast
9:34 PM 75.2 °F - 69.8 °F 83% 29.77 in 10.0 mi South 9.2 mph - N/A Thunderstorm Thunderstorm
10:00 PM 77.0 °F - 69.8 °F 78% 29.76 in 10.0 mi SW 11.5 mph 18.4 mph N/A Rain , Thunderstorm Light Thunderstorms and Rain
10:22 PM 75.2 °F - 69.8 °F 83% 29.79 in 3.0 mi WNW 15.0 mph 21.9 mph N/A Rain , Thunderstorm Thunderstorms and Rain
10:24 PM 75.2 °F - 69.8 °F 83% 29.79 in 4.0 mi WNW 13.8 mph 21.9 mph N/A Rain , Thunderstorm Light Thunderstorms and Rain
10:33 PM 73.4 °F - 69.8 °F 88% 29.79 in 6.0 mi West 6.9 mph 18.4 mph N/A   Overcast
11:00 PM 73.4 °F - 71.6 °F 94% 29.78 in 6.0 mi West 3.5 mph - N/A   Mostly Cloudy